Showing default

MATS, 54227

Orbit data source: Space-Track

MATS, 54227 is a payload satellite owned by SNSB (SE) in SSO that was launched on Fri, 04 Nov 2022 UTC via an ELECTRON launch vehicle from the Rocket Lab Launch Complex (RLLC). Payload-class satellites include a variety of spacecraft equipped with specific instruments for various scientific and technological missions. These include communications satellites like Starlink; space stations such as the ISS; scientific satellites like the Hubble; Earth observation satellites from companies like Planet Labs, Umbra, and HawkEye 360; GPS; miniature CubeSats for education and research; and military/defense satellites.

Loading next visibility...
Identifier
54227, 2022-147A
Orbit
SSO
Country
Flag of SESE / SWED
Related business
Manufacturer
OHB-SE
Mission
Operational Civil Earth Obs Sci
Bus & Motor
INNOSAT, Unknown motor
Mass
54 kg wet, 54 kg dry
Launch date (UTC)
2022-11-04 (4 years ago)
Launch vehicle
ELECTRON
Launch site
Rocket Lab Launch Complex (RLLC)
Object type
Payload
Rocket body
Debris
Shape & HBR
Box, 0.4 m
Radar Cross Section
0.660 m², Medium (>0.1 m² and < 1m²)

Expand to show TLE details & history
Last TLE update: 2 days ago

TLE from 2 days ago
0 MATS
1 54227U 22147A   26171.43896728  .00002146  00000-0  15391-3 0  9995
2 54227  97.6814 173.0214 0012446 181.1993 178.9206 15.05366283198251
Epoch: 2026-06-20T10:32Z
TLE epoch observation values (Epoch: 2026-06-20T10:32:06.772Z)
Latitude
-0.00002°
Longitude
106.33961°
Altitude
562.068 km
Speed
7.576 km/s
True Right ascension
11h 32m 05s
True Declination
0° 00' 00"
Sunlit
Object was in daylight at epoch
Visualization orbit readout
Latitude
Unknown
Longitude
Unknown
Altitude
Unknown
Speed
Unknown
Apparent Right ascension
Unknown
Apparent Declination
Unknown
Sunlit
N/A
Visualization observer readout
Local Sidereal Time
21:45:17
Azimuth
Unknown
Elevation
Unknown
Doppler factor
Unknown
Orbital elements
Apogee altitude
555.998 km
Perigee altitude
538.759 km
Semi-major axis
6,925.516 km
Eccentricity
0.00124
Inclination
97.6814°
RAAN
173.0214°
Arg. of periapsis
181.1993°
True anomaly
178.92328°
Mean anomaly
178.9206°
Eccentric anomaly
178.92194°
Mean motion
3.76587 °/min
Orbital period
95.6 mins
BSTAR
0.00015391
Loading maneuver chart data...
Computing Atmospheric mass density...
Loading historical data...
Loading historical data...
Loading historical data...
Loading historical data...
Loading historical data...
Loading historical data...
Loading historical data...
Other satellites on launch #147 in the year 2022 (2022-11-04 UTC)

Documentation

Showing up to 5 results
|